Orbital Elements at Epoch 2458401.5 (2018-Oct-10.0) TDB
Reference: JPL 12 (heliocentric ecliptic J2000)
Element | Value | Uncertainty (1-sigma) | Units |
e | .3264277990694471 | 6.0311e-07 | |
a | 4.527671669723306 | 4.3615e-06 | au |
q | 3.049713771666439 | 2.0234e-06 | au |
i | 8.234045792772614 | 1.5945e-05 | deg |
node | 133.11427754 | 0.00032276 | deg |
peri | 90.06069160702059 | 0.0003474 | deg |
M | 335.451380858242 | 7.1676e-05 | deg |
tp | 2458641.458082594107 (2019-Jun-06.95808259) | 0.00059189 | TDB |
period | 3518.931522585527 9.63 | 0.0050847 1.392e-05 | d yr |
n | .1023037810453017 | 1.4783e-07 | deg/d |
Q | 6.005629567780173 | 5.7853e-06 | au |
|
Additional Model Parameters
Parameter | Value | Uncertainty (1-sigma) |
A2 [EST] | 9.693236450764649E-7 | 1.527E-7 |
|
| | Orbit Determination Parameters
Additional Information
|